Theta_e
314 312 310 311 321 321 321 323 324 322 324 326 328 336 343 348 348 350 355 358 361 363 364 366 366 365 364 363 363 363 362 361
309 309 315 316 321 319 320 323 325 324 320 326 334 334 345 348 349 351 351 354 360 362 363 365 365 363 364 363 363 363 362 361
308 309 314 316 321 320 319 320 321 322 320 323 335 342 348 348 349 351 350 352 361 361 362 363 364 364 363 363 363 362 362 362
304 308 313 314 319 319 319 320 320 320 320 325 336 341 345 349 350 352 351 353 361 360 361 362 363 362 362 362 362 362 361 361
305 305 309 313 318 315 317 318 317 321 317 325 328 337 346 348 350 350 352 353 359 355 358 361 361 361 361 360 360 360 360 360
305 303 304 313 316 317 315 315 320 318 316 320 323 330 345 347 348 348 350 352 356 355 352 353 356 360 360 360 359 359 359 359
303 304 306 312 309 315 317 314 315 318 320 323 322 329 335 342 344 345 347 351 356 353 352 351 350 354 358 358 359 359 358 358
308 309 307 309 309 311 310 310 312 314 319 322 323 324 331 336 338 341 343 346 353 355 354 353 349 355 350 350 352 353 353 355
308 309 310 309 308 310 308 305 311 312 316 320 321 323 327 332 336 339 342 344 348 357 361 354 350 352 350 346 346 348 351 358
309 310 309 307 310 308 309 309 312 313 315 316 318 320 324 329 332 335 341 345 348 355 360 362 353 350 351 344 345 345 348 360
309 309 309 309 307 307 308 312 314 314 314 314 316 319 322 326 329 333 337 345 348 354 362 366 367 354 353 350 346 346 348 354
308 308 308 306 307 308 309 313 312 313 313 315 317 318 319 321 325 328 335 345 349 352 366 362 363 366 359 358 350 348 347 351
307 308 307 309 304 305 310 312 311 312 313 315 316 318 318 321 324 329 332 343 350 354 361 367 364 364 362 355 353 350 351 359
306 307 308 307 300 308 312 311 310 311 312 313 315 317 319 321 323 326 330 336 344 347 353 363 365 364 359 357 356 352 352 350
302 307 305 304 301 307 310 310 310 311 312 313 314 317 320 321 322 325 327 333 340 350 351 357 365 363 364 365 358 356 356 353
300 305 304 302 302 306 309 309 310 311 312 313 313 315 319 321 322 324 327 331 334 342 358 362 360 364 359 358 357 357 355 356
302 305 302 303 303 306 309 309 309 310 311 313 314 317 319 320 322 323 327 328 333 336 352 356 354 352 353 351 353 353 355 361
302 305 304 303 302 306 308 309 310 310 311 312 314 315 317 319 321 322 325 329 332 335 343 348 347 355 354 354 350 351 352 359
299 303 304 302 300 303 307 309 310 311 312 313 313 314 316 317 319 321 322 326 332 337 342 346 350 348 358 356 353 347 347 350
299 298 294 303 293 302 305 307 308 310 311 312 313 315 316 317 319 321 322 324 326 331 338 340 349 343 348 343 342 342 343 345
Wind_Speed
12 14 16 5 13 5 8 2 9 3 6 6 6 2 9 16 13 15 16 17 17 15 13 15 14 12 13 14 14 13 12 12
11 17 17 5 13 5 7 4 4 7 5 3 9 2 6 14 14 14 15 17 20 15 15 15 14 14 12 13 14 13 13 11
16 19 16 6 3 5 8 3 4 3 4 3 10 6 11 13 12 13 15 15 18 14 13 13 14 15 15 14 14 14 13 11
15 19 14 4 7 9 10 3 3 9 4 9 8 9 9 10 9 11 13 14 16 15 13 14 13 13 14 15 15 13 13 12
20 18 17 12 13 8 12 10 6 6 10 8 12 5 5 6 7 10 13 12 14 16 14 13 13 13 13 12 13 13 12 10
18 18 18 10 12 9 8 10 5 2 8 2 12 4 8 9 10 11 12 13 14 15 16 14 13 12 13 13 13 11 11 11
18 14 15 15 4 13 2 10 8 10 9 9 5 2 9 10 10 11 11 13 14 16 16 15 15 13 12 13 13 13 12 11
14 9 7 15 5 11 4 13 17 14 12 8 8 7 11 12 10 11 12 13 13 14 15 15 12 14 13 13 12 12 13 14
4 5 8 11 8 9 12 16 16 15 13 11 8 8 10 13 15 12 12 11 12 13 13 15 12 11 8 8 9 9 13 11
9 6 10 12 13 15 13 14 14 5 10 11 11 14 13 15 14 13 16 15 13 14 12 12 10 10 10 10 10 9 12 12
13 11 12 13 14 14 15 11 13 13 10 13 14 10 8 8 13 13 8 14 14 13 12 11 10 10 9 10 10 12 11 12
11 15 15 15 16 16 15 12 16 12 13 15 14 14 10 9 9 8 10 7 10 11 13 14 13 12 10 9 12 11 11 12
16 16 16 13 18 20 16 13 13 13 13 13 10 12 11 11 8 6 8 9 9 11 11 12 13 11 8 10 11 11 9 13
18 21 17 13 17 16 20 15 13 16 15 12 12 14 13 12 9 9 8 8 13 12 14 15 13 11 10 12 11 10 11 9
15 12 8 12 14 19 4 8 11 13 11 13 14 14 11 12 11 10 9 8 11 11 12 13 14 12 12 12 11 11 11 12
15 10 10 16 17 16 10 14 15 15 14 15 12 12 12 12 9 8 7 5 6 10 9 10 10 11 11 12 12 12 12 12
12 6 8 12 16 17 15 15 14 15 16 15 15 13 12 13 8 8 7 5 6 9 10 9 10 11 11 12 12 12 12 14
16 13 13 15 19 17 16 15 17 17 17 16 16 15 13 13 12 11 9 9 8 8 8 10 10 9 10 10 13 12 12 12
17 14 9 16 19 20 18 23 21 18 18 16 16 16 14 11 9 7 6 10 10 9 9 8 11 10 9 10 10 11 12 11
15 15 15 17 16 16 12 14 13 14 15 16 18 17 12 4 6 9 10 11 11 8 8 9 10 11 13 12 13 13 13 12
Wind_Direction
238 237 252 302 317 24 45 248 242 225 307 44 79 59 117 97 140 137 145 156 145 146 142 142 144 146 153 155 154 155 156 157
259 252 233 126 230 20 238 160 266 338 193 144 32 75 70 132 144 142 155 158 137 148 146 146 148 157 153 156 153 155 155 159
244 244 265 295 17 300 276 320 255 241 236 113 81 78 121 141 151 156 152 153 149 144 146 148 149 151 153 156 152 155 154 157
250 244 255 209 273 260 272 291 252 241 312 96 118 114 131 146 157 159 146 148 145 145 149 149 154 156 157 154 153 155 155 157
245 250 252 216 234 254 255 262 262 16 262 116 110 73 112 142 145 147 145 153 149 169 162 153 158 159 158 154 155 156 157 153
254 259 257 234 230 243 268 257 46 262 252 150 73 342 171 178 162 162 158 157 157 175 177 181 175 168 162 161 158 158 153 148
244 252 252 247 226 255 242 293 272 263 282 346 354 207 222 195 176 178 168 166 166 176 178 188 183 176 172 172 170 160 161 162
244 243 240 276 226 291 233 248 242 239 240 252 245 247 232 190 198 192 178 181 173 180 177 190 189 170 198 190 200 201 194 184
247 269 270 256 219 239 241 254 269 258 236 227 251 254 245 238 205 194 185 189 190 182 175 195 199 171 192 194 197 200 207 200
278 229 235 249 251 254 246 249 259 251 292 299 268 252 233 231 231 201 189 183 182 175 187 194 196 188 189 200 189 195 198 195
257 252 249 256 251 257 251 240 243 244 214 239 243 263 296 296 301 296 164 214 172 184 193 192 230 194 200 203 190 194 189 191
233 240 234 244 251 236 238 246 239 238 236 230 224 221 217 225 251 292 291 246 171 194 183 201 207 232 193 200 203 202 195 190
240 239 240 239 251 245 240 245 219 239 230 243 236 241 238 250 254 229 256 234 212 214 201 197 210 220 227 215 222 197 207 188
234 218 224 230 260 252 221 210 234 243 243 235 241 244 242 243 253 274 277 261 223 238 201 204 218 215 220 221 212 220 205 234
241 176 236 201 255 234 108 227 248 243 236 238 232 227 241 249 255 259 258 250 278 223 235 207 206 224 216 230 226 213 217 216
261 177 194 247 235 260 197 216 225 234 242 247 242 240 242 243 242 281 283 285 257 284 237 230 213 210 233 221 223 229 224 208
278 228 253 268 271 269 257 247 247 245 236 242 243 248 242 244 226 262 274 272 245 230 246 241 225 223 215 229 219 221 227 226
261 266 263 267 264 265 261 254 248 255 254 242 243 242 242 236 233 240 237 267 275 268 233 243 228 238 248 225 230 221 218 218
272 277 231 257 265 256 250 249 251 246 258 257 258 259 260 264 253 267 273 274 270 267 271 237 253 251 229 246 263 243 223 220
260 261 260 251 271 274 266 265 254 234 226 249 252 244 241 277 329 298 285 282 275 276 277 261 246 252 259 250 229 232 239 232